DW8024 Cheadle Hulme UK current weather conditions

sailwx.info

Wind from 274 at 6 knots gusting 14

Air temperature 16.7° C
Dewpoint 10.7° C

Last reported at 2019-Aug-20 13:09 UTC.
Time now 2019-Aug-20 13:45 UTC

Location: N 53°22' W 002°12'.
View on Google Maps.

See reports from other nearby stations

  
Tides and Currents Weather Stations Pressure Air Temp Water Temp Dewpoint Dewpoint Depression Visibility Wind Speed Wind Dir Waves Ship Positions
date/time (UTC)wind fromknots sea level pressurealtimeterstation pressurevisibilityair tempwater tempwave heightnotes
2019-Aug-20 13:09 274 6 gusting 14 16.7
2019-Aug-20 13:04 278 8 gusting 14 16.7
2019-Aug-20 12:59 288 8 gusting 15 17.2
2019-Aug-20 12:54 289 7 gusting 15 17.2
2019-Aug-20 12:49 277 6 gusting 13 17.2
2019-Aug-20 12:44 266 7 gusting 12 17.2
2019-Aug-20 12:39 261 8 gusting 13 17.2
2019-Aug-20 12:34 258 7 gusting 13 16.7
2019-Aug-20 12:29 265 6 gusting 13 16.1
2019-Aug-20 12:24 268 5 gusting 11 16.1
2019-Aug-20 12:19 258 3 gusting 8 15.6
2019-Aug-20 12:14 256 4 gusting 13 15.6
2019-Aug-20 12:09 263 4 gusting 13 15.0
2019-Aug-20 12:04 264 5 gusting 12 15.0
2019-Aug-20 11:59 256 5 gusting 12 15.0
2019-Aug-20 11:54 253 4 gusting 9 14.4
2019-Aug-20 11:49 253 3 gusting 7 14.4
2019-Aug-20 11:44 247 3 gusting 6 14.4
2019-Aug-20 11:39 239 4 gusting 8 14.4
2019-Aug-20 11:34 241 4 gusting 9 14.4
2019-Aug-20 11:29 248 5 gusting 13 14.4
2019-Aug-20 11:24 245 5 gusting 13 15.0
2019-Aug-20 11:19 244 4 gusting 11 15.6
2019-Aug-20 11:14 255 5 gusting 10 15.6
2019-Aug-20 11:09 260 3 gusting 9 15.6
2019-Aug-20 11:04 253 2 gusting 7 15.0
2019-Aug-20 10:59 251 3 gusting 8 15.0
2019-Aug-20 10:54 253 3 gusting 8 14.4
2019-Aug-20 10:49 248 4 gusting 9 14.4
2019-Aug-20 10:44 251 4 gusting 9 14.4
2019-Aug-20 10:39 267 4 gusting 10 14.4
2019-Aug-20 10:34 275 5 gusting 12 14.4
2019-Aug-20 10:29 274 6 gusting 12 14.4
2019-Aug-20 10:24 274 5 gusting 12 15.0
2019-Aug-20 10:19 270 5 gusting 12 15.0
2019-Aug-20 10:14 262 4 gusting 11 15.6
2019-Aug-20 10:09 252 3 gusting 9 15.0
2019-Aug-20 10:04 260 3 gusting 9 14.4
2019-Aug-20 09:59 261 3 gusting 11 14.4
2019-Aug-20 09:54 260 4 gusting 11 13.9
2019-Aug-20 09:49 268 6 gusting 9 13.9
2019-Aug-20 09:44 276 6 gusting 12 13.9
2019-Aug-20 09:39 275 6 gusting 12 14.4
2019-Aug-20 09:34 265 6 gusting 13 14.4
2019-Aug-20 09:29 265 6 gusting 13 14.4
2019-Aug-20 09:24 274 6 gusting 13 13.9
2019-Aug-20 09:19 279 6 gusting 13 14.4
2019-Aug-20 09:14 279 6 gusting 13 14.4
2019-Aug-20 09:09 283 6 gusting 14 14.4
2019-Aug-20 09:04 280 6 gusting 14 14.4
2019-Aug-20 08:59 267 6 gusting 11 14.4
2019-Aug-20 08:54 261 5 gusting 11 14.4
2019-Aug-20 08:49 263 4 gusting 9 14.4
2019-Aug-20 08:44 272 5 gusting 10 13.9
2019-Aug-20 08:39 267 4 gusting 10 13.9
2019-Aug-20 08:34 233 3 gusting 8 13.9
2019-Aug-20 08:29 221 3 gusting 7 13.9
2019-Aug-20 08:24 240 2 gusting 6 13.3
2019-Aug-20 08:19 239 2 gusting 6 13.3
2019-Aug-20 08:14 239 2 gusting 7 13.3
2019-Aug-20 08:09 245 3 gusting 7 12.8
2019-Aug-20 08:04 232 2 gusting 7 12.8
2019-Aug-20 07:59 220 2 gusting 7 12.8
2019-Aug-20 07:54 217 2 gusting 6 12.2
2019-Aug-20 07:49 219 2 gusting 6 12.2
2019-Aug-20 07:44 221 2 gusting 6 12.2
2019-Aug-20 07:39 216 1 gusting 6 12.2
2019-Aug-20 07:34 213 2 gusting 6 12.2
2019-Aug-20 07:29 218 2 gusting 6 12.2
2019-Aug-20 07:24 219 2 gusting 6 12.2
2019-Aug-20 07:19 223 2 gusting 6 12.2
2019-Aug-20 07:14 228 2 gusting 7 12.2
2019-Aug-20 07:09 228 2 gusting 7 12.2
2019-Aug-20 07:04 222 3 gusting 8 11.7
2019-Aug-20 06:59 221 2 gusting 8 11.7
2019-Aug-20 06:54 218 2 gusting 7 11.7
2019-Aug-20 06:49 214 3 gusting 9 11.7
2019-Aug-20 06:44 210 4 gusting 9 11.7
2019-Aug-20 06:39 211 3 gusting 8 11.7
2019-Aug-20 06:34 221 3 gusting 7 11.7
2019-Aug-20 06:29 223 4 gusting 9 11.7
2019-Aug-20 06:24 219 3 gusting 9 11.7
2019-Aug-20 06:19 213 3 gusting 10 11.7
2019-Aug-20 06:14 204 2 gusting 10 11.7
2019-Aug-20 06:09 202 2 gusting 8 11.7
2019-Aug-20 06:04 204 3 gusting 8 11.7
2019-Aug-20 05:59 201 3 gusting 7 11.7
2019-Aug-20 05:54 200 3 gusting 8 11.7
2019-Aug-20 05:49 200 4 gusting 8 11.7
2019-Aug-20 05:44 211 2 gusting 8 11.7
2019-Aug-20 05:39 206 2 gusting 7 11.7
2019-Aug-20 05:34 192 4 gusting 7 11.7
2019-Aug-20 05:29 193 3 gusting 7 11.7
2019-Aug-20 05:24 197 3 gusting 6 11.7
2019-Aug-20 05:19 199 3 gusting 6 11.7
2019-Aug-20 05:14 199 3 gusting 6 11.7
2019-Aug-20 05:09 196 3 gusting 6 11.7
2019-Aug-20 05:04 192 3 gusting 6 11.7
2019-Aug-20 04:59 192 3 gusting 6 11.7
2019-Aug-20 04:54 190 3 gusting 6 11.7
2019-Aug-20 04:49 193 2 gusting 6 11.7
2019-Aug-20 04:44 199 1 gusting 6 11.7
2019-Aug-20 04:39 198 1 gusting 6 11.7
2019-Aug-20 04:34 197 2 gusting 5 11.7
2019-Aug-20 04:29 196 2 gusting 6 11.7
2019-Aug-20 04:24 203 2 gusting 6 11.7
2019-Aug-20 04:19 218 1 gusting 6 11.7
2019-Aug-20 04:14 226 2 gusting 6 11.7
2019-Aug-20 04:09 233 1 gusting 6 11.7
2019-Aug-20 04:04 240 3 gusting 7 11.7
2019-Aug-20 03:59 246 4 gusting 9 11.7
2019-Aug-20 03:54 239 3 gusting 9 11.7
2019-Aug-20 03:49 222 2 gusting 6 11.7
2019-Aug-20 03:44 211 1 gusting 5 11.7
2019-Aug-20 03:39 213 1 gusting 5 11.7
2019-Aug-20 03:34 218 1 gusting 5 11.7
2019-Aug-20 03:29 204 1 gusting 5 11.7
2019-Aug-20 03:24 204 1 gusting 6 11.7
2019-Aug-20 03:19 223 2 gusting 6 11.7
2019-Aug-20 03:14 218 2 gusting 7 11.7
2019-Aug-20 03:09 212 2 gusting 7 11.7
2019-Aug-20 03:04 204 3 gusting 6 11.7
2019-Aug-20 02:59 200 3 gusting 6 11.7
2019-Aug-20 02:54 199 3 gusting 7 11.7
2019-Aug-20 02:49 201 3 gusting 7 11.7
2019-Aug-20 02:44 193 3 gusting 6 11.7
2019-Aug-20 02:39 182 3 gusting 6 11.7
2019-Aug-20 02:34 186 3 gusting 6 11.7
2019-Aug-20 02:29 189 3 gusting 6 11.7
2019-Aug-20 02:24 188 3 gusting 6 11.7
2019-Aug-20 02:19 191 3 gusting 7 11.7
2019-Aug-20 02:14 191 3 gusting 7 11.7
2019-Aug-20 02:09 190 2 gusting 6 11.7
2019-Aug-20 02:04 190 2 gusting 6 11.7
2019-Aug-20 01:59 187 3 gusting 6 11.7
2019-Aug-20 01:54 184 3 gusting 6 11.7
2019-Aug-20 01:49 186 3 gusting 6 11.7
2019-Aug-20 01:44 183 3 gusting 6 11.7
2019-Aug-20 01:39 179 2 gusting 6 11.7
2019-Aug-20 01:34 181 1 gusting 6 11.1
2019-Aug-20 01:29 182 2 gusting 5 11.1
2019-Aug-20 01:24 187 2 gusting 6 11.7
2019-Aug-20 01:19 189 2 gusting 6 11.7
2019-Aug-20 01:14 185 3 gusting 7 11.7
2019-Aug-20 01:09 184 4 gusting 7 11.7
2019-Aug-20 01:04 188 3 gusting 7 11.7
2019-Aug-20 00:59 186 3 gusting 7 11.7
2019-Aug-20 00:54 177 3 gusting 6 11.7
2019-Aug-20 00:49 173 3 gusting 6 11.7
2019-Aug-20 00:44 172 3 gusting 6 11.7
2019-Aug-20 00:39 171 3 gusting 6 11.7
2019-Aug-20 00:34 170 3 gusting 6 11.7
2019-Aug-20 00:29 169 3 gusting 6 11.7
2019-Aug-20 00:24 173 3 gusting 6 11.7
2019-Aug-20 00:19 175 2 gusting 6 11.7
2019-Aug-20 00:14 172 3 gusting 6 11.7
2019-Aug-20 00:09 174 3 gusting 6 11.7
2019-Aug-20 00:04 173 3 gusting 5 11.7
2019-Aug-19 23:59 174 2 gusting 4 11.7
2019-Aug-19 23:54 173 2 gusting 5 11.7
2019-Aug-19 23:49 174 2 gusting 6 11.7
2019-Aug-19 23:44 178 3 gusting 6 11.7
2019-Aug-19 23:39 179 3 gusting 6 11.7
2019-Aug-19 23:34 184 2 gusting 6 11.7
2019-Aug-19 23:29 184 2 gusting 5 11.7
2019-Aug-19 23:24 178 2 gusting 5 11.7
2019-Aug-19 23:19 175 2 gusting 5 11.7
2019-Aug-19 23:14 171 2 gusting 6 11.7
2019-Aug-19 23:09 171 3 gusting 6 11.7
2019-Aug-19 23:04 175 3 gusting 6 12.2
2019-Aug-19 23:00 185 3 gusting 6 12.2
2019-Aug-19 22:54 190 3 gusting 6 12.2
2019-Aug-19 22:49 187 3 gusting 6 12.2
2019-Aug-19 22:44 185 3 gusting 6 12.2
2019-Aug-19 22:39 183 4 gusting 6 12.2
2019-Aug-19 22:34 186 4 gusting 6 12.2
2019-Aug-19 22:29 188 4 gusting 7 12.2
2019-Aug-19 22:24 185 3 gusting 7 12.2
2019-Aug-19 22:19 184 3 gusting 6 12.2
2019-Aug-19 22:14 183 3 gusting 7 12.2
2019-Aug-19 22:09 182 4 gusting 7 12.2
2019-Aug-19 22:04 185 3 gusting 6 12.8
2019-Aug-19 21:59 188 3 gusting 7 12.8
2019-Aug-19 21:54 193 3 gusting 7 12.8
2019-Aug-19 21:49 193 3 gusting 6 12.8
2019-Aug-19 21:44 186 3 gusting 6 12.8
2019-Aug-19 21:39 188 4 gusting 6 12.8
2019-Aug-19 21:34 189 3 gusting 6 12.8
2019-Aug-19 21:29 183 2 gusting 6 12.8
2019-Aug-19 21:24 177 3 gusting 6 12.8
2019-Aug-19 21:19 175 3 gusting 6 12.8
2019-Aug-19 21:14 175 3 gusting 6 12.8
2019-Aug-19 21:09 175 3 gusting 6 12.8
2019-Aug-19 21:04 179 3 gusting 6 12.8
2019-Aug-19 20:59 184 2 gusting 6 12.8
2019-Aug-19 20:54 184 2 gusting 6 13.3
2019-Aug-19 20:49 178 2 gusting 6 13.3
2019-Aug-19 20:44 177 3 gusting 6 13.3
2019-Aug-19 20:39 178 3 gusting 6 13.3
2019-Aug-19 20:34 181 2 gusting 6 13.3
2019-Aug-19 20:29 186 2 gusting 6 13.3
2019-Aug-19 20:24 192 2 gusting 6 13.3
2019-Aug-19 20:19 197 3 gusting 6 13.3
2019-Aug-19 20:14 202 3 gusting 6 13.3
2019-Aug-19 20:09 202 3 gusting 7 13.3
2019-Aug-19 20:04 203 3 gusting 7 13.9
2019-Aug-19 19:59 210 2 gusting 6 13.9
2019-Aug-19 19:54 213 2 gusting 6 13.9
2019-Aug-19 19:49 223 1 gusting 4 13.9
2019-Aug-19 19:44 234 2 gusting 7 13.9
2019-Aug-19 19:39 240 2 gusting 7 13.9
2019-Aug-19 19:34 235 2 gusting 8 13.9
2019-Aug-19 19:29 238 2 gusting 8 13.9
2019-Aug-19 19:24 244 2 gusting 8 14.4
2019-Aug-19 19:19 234 3 gusting 8 14.4
2019-Aug-19 19:14 229 2 gusting 9 14.4
2019-Aug-19 19:09 235 3 gusting 9 14.4
2019-Aug-19 19:04 233 4 gusting 12 14.4
2019-Aug-19 18:59 231 4 gusting 12 14.4
2019-Aug-19 18:54 231 3 gusting 8 14.4
2019-Aug-19 18:49 226 2 gusting 7 14.4
2019-Aug-19 18:44 227 1 gusting 5 14.4
2019-Aug-19 18:39 232 1 gusting 4 14.4
2019-Aug-19 18:34 235 1 gusting 6 14.4
2019-Aug-19 18:29 231 2 gusting 6 14.4
2019-Aug-19 18:24 223 2 gusting 6 14.4
2019-Aug-19 18:19 245 2 gusting 6 14.4
2019-Aug-19 18:14 281 2 gusting 6 14.4
2019-Aug-19 18:09 287 5 gusting 8 14.4
2019-Aug-19 18:04 288 6 gusting 10 14.4
2019-Aug-19 17:59 289 6 gusting 12 14.4
2019-Aug-19 17:54 288 5 gusting 15 15.0
2019-Aug-19 17:49 263 2 gusting 15 15.6
2019-Aug-19 17:44 213 1 gusting 4 15.6
2019-Aug-19 17:39 214 1 gusting 6 15.6
2019-Aug-19 17:34 204 2 gusting 6 16.1
2019-Aug-19 17:29 227 3 gusting 8 16.1
2019-Aug-19 17:24 245 5 gusting 12 16.7
2019-Aug-19 17:19 251 5 gusting 14 16.7
2019-Aug-19 17:14 248 4 gusting 14 17.2
2019-Aug-19 17:09 238 3 gusting 8 17.2
2019-Aug-19 17:04 234 3 gusting 7 17.2
2019-Aug-19 16:59 233 3 gusting 10 17.8
2019-Aug-19 16:54 241 3 gusting 10 17.8
2019-Aug-19 16:49 248 3 gusting 8 17.8
2019-Aug-19 16:44 236 3 gusting 8 17.8
2019-Aug-19 16:39 232 4 gusting 10 17.8
2019-Aug-19 16:34 242 4 gusting 10 17.8
2019-Aug-19 16:29 256 3 gusting 8 17.8
2019-Aug-19 16:24 253 3 gusting 11 17.8
2019-Aug-19 16:19 249 4 gusting 11 17.8
2019-Aug-19 16:14 262 5 gusting 14 18.3
2019-Aug-19 16:09 268 6 gusting 14 18.3
2019-Aug-19 16:04 261 5 gusting 11 18.3
2019-Aug-19 15:59 258 5 gusting 9 17.8
2019-Aug-19 15:54 254 5 gusting 12 17.8
2019-Aug-19 15:49 264 6 gusting 13 18.3
2019-Aug-19 15:44 275 6 gusting 13 17.8
2019-Aug-19 15:39 274 6 gusting 11 17.8
2019-Aug-19 15:34 279 7 gusting 14 17.8
2019-Aug-19 15:29 284 7 gusting 14 18.3
2019-Aug-19 15:24 284 6 gusting 12 18.3
2019-Aug-19 15:19 287 6 gusting 13 18.3
2019-Aug-19 15:14 285 6 gusting 13 18.3
2019-Aug-19 15:09 286 6 gusting 13 18.3
2019-Aug-19 15:04 296 6 gusting 12 18.3
2019-Aug-19 14:59 295 6 gusting 13 18.3
2019-Aug-19 14:54 292 6 gusting 15 18.3
2019-Aug-19 14:49 289 7 gusting 15 18.3
2019-Aug-19 14:44 290 8 gusting 15 18.3
2019-Aug-19 14:39 290 8 gusting 15 18.3
2019-Aug-19 14:34 281 7 gusting 14 18.3
2019-Aug-19 14:29 280 7 gusting 16 18.3
2019-Aug-19 14:24 287 8 gusting 16 18.3
2019-Aug-19 14:19 283 6 gusting 14 17.8
2019-Aug-19 14:14 271 5 gusting 14 17.2
2019-Aug-19 14:09 271 6 gusting 11 16.7
2019-Aug-19 14:04 281 6 gusting 12 16.7
2019-Aug-19 13:59 294 6 gusting 12 17.2
2019-Aug-19 13:54 300 4 gusting 10 17.2
2019-Aug-19 13:49 283 2 gusting 6 17.8
2019-Aug-19 13:44 245 2 gusting 6 17.2
2019-Aug-19 13:39 237 2 gusting 6 16.7
2019-Aug-19 13:34 266 1 gusting 6 16.7
2019-Aug-19 13:29 262 1 gusting 8 16.1
2019-Aug-19 13:24 269 2 gusting 8 16.1
2019-Aug-19 13:19 271 3 gusting 8 16.1
2019-Aug-19 13:14 265 4 gusting 9 16.1
2019-Aug-19 13:09 273 5 gusting 9 16.7
2019-Aug-19 13:04 278 6 gusting 10 16.7
2019-Aug-19 12:59 275 5 gusting 10 16.7
2019-Aug-19 12:54 273 5 gusting 12 16.7
2019-Aug-19 12:49 275 7 gusting 13 16.7
2019-Aug-19 12:44 274 6 gusting 13 16.7
2019-Aug-19 12:39 278 6 gusting 12 16.7
2019-Aug-19 12:34 281 7 gusting 13 16.7
2019-Aug-19 12:29 283 7 gusting 13 16.7
2019-Aug-19 12:24 289 7 gusting 14 16.7
2019-Aug-19 12:19 289 7 gusting 14 16.1
2019-Aug-19 12:14 287 6 gusting 14 15.6
2019-Aug-19 12:09 287 7 gusting 13 15.6
2019-Aug-19 12:04 283 9 gusting 15 15.6
2019-Aug-19 11:59 282 10 gusting 19 16.7
2019-Aug-19 11:54 266 8 gusting 19 17.8
2019-Aug-19 11:49 228 5 gusting 12 18.3
2019-Aug-19 11:44 216 5 gusting 10 18.9
2019-Aug-19 11:39 202 6 gusting 13 18.3
2019-Aug-19 11:34 204 6 gusting 13 18.3
2019-Aug-19 11:29 222 5 gusting 13 18.3
2019-Aug-19 11:24 222 4 gusting 13 18.3
2019-Aug-19 11:19 227 4 gusting 9 18.3
2019-Aug-19 11:14 212 5 gusting 12 18.3
2019-Aug-19 11:09 216 5 gusting 13 18.9
2019-Aug-19 11:04 218 6 gusting 13 18.9
2019-Aug-19 10:59 215 6 gusting 13 18.9
2019-Aug-19 10:54 236 6 gusting 13 18.9
2019-Aug-19 10:49 252 6 gusting 13 18.9
2019-Aug-19 10:44 266 5 gusting 10 18.3
2019-Aug-19 10:39 266 4 gusting 10 18.3
2019-Aug-19 10:34 261 4 gusting 9 18.3
2019-Aug-19 10:29 269 5 gusting 13 18.3
2019-Aug-19 10:24 271 6 gusting 13 18.3
2019-Aug-19 10:19 273 6 gusting 11 18.3
2019-Aug-19 10:14 280 5 gusting 12 18.3
2019-Aug-19 10:09 264 5 gusting 12 18.3
2019-Aug-19 10:04 258 6 gusting 12 18.3
2019-Aug-19 09:59 261 5 gusting 13 18.3
2019-Aug-19 09:54 255 4 gusting 13 18.3
2019-Aug-19 09:49 271 6 gusting 11 17.8
2019-Aug-19 09:44 279 7 gusting 13 17.8
2019-Aug-19 09:39 280 8 gusting 13 17.8
2019-Aug-19 09:34 277 8 gusting 14 17.2
2019-Aug-19 09:29 273 7 gusting 14 17.2
2019-Aug-19 09:24 267 6 gusting 13 17.2
2019-Aug-19 09:19 264 6 gusting 14 17.2
2019-Aug-19 09:14 270 6 gusting 14 16.7
2019-Aug-19 09:09 274 6 gusting 14 16.7
2019-Aug-19 09:04 266 6 gusting 14 16.7
2019-Aug-19 08:59 254 6 gusting 13 16.7
2019-Aug-19 08:54 246 6 gusting 13 16.1
2019-Aug-19 08:49 234 5 gusting 13 16.1
2019-Aug-19 08:44 243 4 gusting 11 15.6
2019-Aug-19 08:39 256 3 gusting 9 15.6
2019-Aug-19 08:34 252 4 gusting 12 15.6
2019-Aug-19 08:29 263 5 gusting 12 15.6
2019-Aug-19 08:24 263 5 gusting 11 15.6
2019-Aug-19 08:19 267 5 gusting 11 15.0
2019-Aug-19 08:14 269 5 gusting 11 15.0
2019-Aug-19 08:09 257 5 gusting 11 15.0
2019-Aug-19 08:04 253 5 gusting 11 15.0
2019-Aug-19 07:59 247 4 gusting 11 15.0
2019-Aug-19 07:54 252 3 gusting 11 14.4
2019-Aug-19 07:49 264 4 gusting 10 14.4
2019-Aug-19 07:44 261 3 gusting 10 14.4
2019-Aug-19 07:39 259 4 gusting 11 14.4
2019-Aug-19 07:34 260 5 gusting 11 14.4
2019-Aug-19 07:29 259 4 gusting 9 14.4
2019-Aug-19 07:24 255 4 gusting 10 13.9
2019-Aug-19 07:19 252 3 gusting 10 13.9
2019-Aug-19 07:14 242 2 gusting 9 13.9
2019-Aug-19 07:09 234 2 gusting 9 13.9
2019-Aug-19 07:04 239 2 gusting 7 13.3
2019-Aug-19 06:59 238 2 gusting 7 13.3
2019-Aug-19 06:54 231 2 gusting 6 13.3
2019-Aug-19 06:49 228 2 gusting 6 13.3
2019-Aug-19 06:44 237 2 gusting 6 13.3
2019-Aug-19 06:39 243 2 gusting 6 13.3
2019-Aug-19 06:34 237 2 gusting 6 13.3
2019-Aug-19 06:29 238 2 gusting 4 13.3
2019-Aug-19 06:24 234 1 gusting 6 13.3
2019-Aug-19 06:19 225 1 gusting 6 12.8
2019-Aug-19 06:14 222 2 gusting 6 12.8
2019-Aug-19 06:09 223 2 gusting 6 12.8
2019-Aug-19 06:04 228 1 gusting 6 12.8
2019-Aug-19 05:59 219 1 gusting 6 12.8
2019-Aug-19 05:54 212 1 gusting 5 12.8
2019-Aug-19 05:49 217 1 gusting 6 12.8
2019-Aug-19 05:44 213 2 gusting 6 12.8
2019-Aug-19 05:39 211 2 gusting 6 13.3
2019-Aug-19 05:34 219 1 gusting 6 13.3
2019-Aug-19 05:29 224 2 gusting 6 13.3
2019-Aug-19 05:24 225 2 gusting 8 13.3
2019-Aug-19 05:19 223 2 gusting 8 13.3
2019-Aug-19 05:14 218 2 gusting 6 13.3
2019-Aug-19 05:09 220 2 gusting 6 13.3
2019-Aug-19 05:04 231 3 gusting 6 13.3
2019-Aug-19 04:59 230 2 gusting 6 13.3
2019-Aug-19 04:54 220 3 gusting 6 13.3
2019-Aug-19 04:49 210 3 gusting 7 13.3
2019-Aug-19 04:44 202 3 gusting 9 13.3
2019-Aug-19 04:39 198 4 gusting 9 13.3
2019-Aug-19 04:34 202 4 gusting 7 13.3
2019-Aug-19 04:29 203 3 gusting 8 13.3
2019-Aug-19 04:24 201 4 gusting 8 13.3
2019-Aug-19 04:19 200 3 gusting 7 13.3
2019-Aug-19 04:14 200 3 gusting 6 13.3
2019-Aug-19 04:09 202 3 gusting 7 13.3
2019-Aug-19 04:04 198 3 gusting 7 13.3
2019-Aug-19 03:59 204 3 gusting 6 13.3
2019-Aug-19 03:54 214 2 gusting 6 13.3
2019-Aug-19 03:49 218 2 gusting 6 13.3
2019-Aug-19 03:44 211 2 gusting 6 13.3
2019-Aug-19 03:39 200 2 gusting 6 13.3
2019-Aug-19 03:34 198 3 gusting 6 13.3
2019-Aug-19 03:29 196 4 gusting 8 13.3
2019-Aug-19 03:24 195 4 gusting 8 13.3
2019-Aug-19 03:19 199 3 gusting 8 13.3
2019-Aug-19 03:14 205 2 gusting 8 13.3
2019-Aug-19 03:09 201 2 gusting 7 13.3
2019-Aug-19 03:04 201 3 gusting 7 13.3
2019-Aug-19 02:59 208 2 gusting 7 13.3
2019-Aug-19 02:54 206 2 gusting 6 13.3
2019-Aug-19 02:49 207 2 gusting 7 13.3
2019-Aug-19 02:44 205 3 gusting 8 13.3
2019-Aug-19 02:39 198 4 gusting 8 13.3
2019-Aug-19 02:34 196 3 gusting 7 13.3
2019-Aug-19 02:29 194 3 gusting 7 13.3
2019-Aug-19 02:24 195 3 gusting 7 13.3
2019-Aug-19 02:19 194 3 gusting 6 12.8
2019-Aug-19 02:14 188 3 gusting 6 12.8
2019-Aug-19 02:09 187 3 gusting 7 12.8
2019-Aug-19 02:04 189 4 gusting 8 12.8
2019-Aug-19 01:59 188 4 gusting 8 12.8
2019-Aug-19 01:54 184 4 gusting 7 12.8
2019-Aug-19 01:49 182 5 gusting 9 12.8
2019-Aug-19 01:44 179 5 gusting 9 13.3
2019-Aug-19 01:39 174 5 gusting 9 13.3
2019-Aug-19 01:34 177 3 gusting 7 13.3
2019-Aug-19 01:29 189 2 gusting 6 13.3
2019-Aug-19 01:24 186 4 gusting 9 13.3
2019-Aug-19 01:19 179 5 gusting 10 13.3
2019-Aug-19 01:14 178 6 gusting 10 13.3
2019-Aug-19 01:09 181 4 gusting 9 13.3
2019-Aug-19 01:04 182 4 gusting 9 13.3
2019-Aug-19 00:59 184 5 gusting 9 13.3
2019-Aug-19 00:54 185 6 gusting 12 13.3
2019-Aug-19 00:49 185 6 gusting 12 13.3
2019-Aug-19 00:44 179 6 gusting 10 13.3
2019-Aug-19 00:39 176 6 gusting 10 13.3
2019-Aug-19 00:34 176 6 gusting 10 13.3
2019-Aug-19 00:29 178 6 gusting 9 13.3
2019-Aug-19 00:24 179 6 gusting 10 13.3
2019-Aug-19 00:19 178 6 gusting 11 13.3
2019-Aug-19 00:14 177 6 gusting 11 13.3
2019-Aug-19 00:09 174 6 gusting 9 13.3
2019-Aug-19 00:04 174 6 gusting 11 13.3
2019-Aug-18 23:59 181 5 gusting 11 13.9
2019-Aug-18 23:54 187 5 gusting 12 13.9
2019-Aug-18 23:49 183 6 gusting 12 13.9
2019-Aug-18 23:44 181 6 gusting 10 13.9
2019-Aug-18 23:39 188 6 gusting 10 13.9
2019-Aug-18 23:34 191 6 gusting 16 13.9
2019-Aug-18 23:29 188 6 gusting 16 13.9
2019-Aug-18 23:24 185 6 gusting 12 13.9
2019-Aug-18 23:19 186 6 gusting 11 13.9
2019-Aug-18 23:14 187 6 gusting 11 13.9
2019-Aug-18 23:09 188 6 gusting 9 13.9
2019-Aug-18 23:04 191 5 gusting 9 13.9
2019-Aug-18 23:00 188 6 gusting 10 13.9
2019-Aug-18 22:54 187 6 gusting 10 13.9
2019-Aug-18 22:49 188 6 gusting 10 13.9
2019-Aug-18 22:44 183 6 gusting 10 13.9
2019-Aug-18 22:39 181 6 gusting 10 13.9
2019-Aug-18 22:34 184 6 gusting 10 13.9
2019-Aug-18 22:29 183 5 gusting 9 13.9
2019-Aug-18 22:24 185 5 gusting 9 13.9
2019-Aug-18 22:19 188 5 gusting 10 13.9
2019-Aug-18 22:14 191 5 gusting 11 13.9
2019-Aug-18 22:09 191 5 gusting 11 14.4
2019-Aug-18 22:04 191 6 gusting 11 14.4
2019-Aug-18 21:59 191 6 gusting 10 14.4
2019-Aug-18 21:54 191 6 gusting 12 14.4
2019-Aug-18 21:49 194 6 gusting 12 14.4
2019-Aug-18 21:44 193 6 gusting 10 14.4
2019-Aug-18 21:39 192 6 gusting 10 14.4
2019-Aug-18 21:34 191 5 gusting 11 14.4
2019-Aug-18 21:29 192 4 gusting 11 14.4
2019-Aug-18 21:24 196 4 gusting 8 14.4
2019-Aug-18 21:19 196 5 gusting 10 14.4
2019-Aug-18 21:14 197 5 gusting 10 14.4
2019-Aug-18 21:09 193 5 gusting 10 15.0
2019-Aug-18 21:04 191 6 gusting 12 15.0
2019-Aug-18 20:59 192 6 gusting 13 15.0
2019-Aug-18 20:54 189 6 gusting 13 15.0
2019-Aug-18 20:49 190 5 gusting 12 15.0
2019-Aug-18 20:44 196 4 gusting 10 15.0
2019-Aug-18 20:39 196 4 gusting 11 15.0
2019-Aug-18 20:34 196 6 gusting 13 15.0
2019-Aug-18 20:29 196 6 gusting 13 15.0
2019-Aug-18 20:24 192 5 gusting 11 15.0
2019-Aug-18 20:19 196 4 gusting 10 15.6
2019-Aug-18 20:14 204 5 gusting 12 15.6
2019-Aug-18 20:09 203 6 gusting 12 15.6
2019-Aug-18 20:04 200 6 gusting 13 15.6
2019-Aug-18 19:59 201 6 gusting 13 15.6
2019-Aug-18 19:54 200 6 gusting 12 15.6
2019-Aug-18 19:49 195 6 gusting 13 15.6
2019-Aug-18 19:44 198 6 gusting 17 15.6
2019-Aug-18 19:39 203 6 gusting 17 15.6
2019-Aug-18 19:34 206 6 gusting 17 15.6
2019-Aug-18 19:29 208 6 gusting 17 16.1
2019-Aug-18 19:24 209 5 gusting 13 16.1
2019-Aug-18 19:19 204 4 gusting 12 16.1
2019-Aug-18 19:14 204 5 gusting 13 16.1
2019-Aug-18 19:09 204 6 gusting 13 16.1
2019-Aug-18 19:04 205 6 gusting 13 16.1
2019-Aug-18 18:59 202 6 gusting 15 16.1
2019-Aug-18 18:54 201 6 gusting 15 16.7
2019-Aug-18 18:49 205 5 gusting 12 16.7
2019-Aug-18 18:44 213 4 gusting 10 16.7
2019-Aug-18 18:39 223 5 gusting 12 16.7
2019-Aug-18 18:34 223 5 gusting 12 16.7
2019-Aug-18 18:29 226 5 gusting 12 16.7
2019-Aug-18 18:24 232 5 gusting 12 16.7
2019-Aug-18 18:19 237 6 gusting 12 16.7
2019-Aug-18 18:14 228 6 gusting 19 16.7
2019-Aug-18 18:09 215 6 gusting 19 16.7
2019-Aug-18 18:04 222 6 gusting 13 17.2
2019-Aug-18 17:59 240 6 gusting 16 17.2
2019-Aug-18 17:54 239 5 gusting 16 17.2
2019-Aug-18 17:49 239 3 gusting 13 17.2
2019-Aug-18 17:44 236 5 gusting 10 17.8
2019-Aug-18 17:39 226 5 gusting 10 17.8
2019-Aug-18 17:34 222 4 gusting 9 17.8
2019-Aug-18 17:29 220 4 gusting 9 17.8
2019-Aug-18 17:24 224 4 gusting 11 17.8
2019-Aug-18 17:19 224 5 gusting 13 17.8
2019-Aug-18 17:14 226 5 gusting 13 17.2
2019-Aug-18 17:09 229 4 gusting 11 17.2
2019-Aug-18 17:04 224 5 gusting 12 17.2
2019-Aug-18 16:59 236 5 gusting 12 17.8
2019-Aug-18 16:54 248 5 gusting 13 17.8
2019-Aug-18 16:49 237 5 gusting 14 17.8
2019-Aug-18 16:44 239 5 gusting 14 17.8
2019-Aug-18 16:39 246 6 gusting 14 17.8
2019-Aug-18 16:34 245 6 gusting 15 17.8
2019-Aug-18 16:29 243 6 gusting 15 18.3
2019-Aug-18 16:24 236 6 gusting 13 18.3
2019-Aug-18 16:19 228 6 gusting 17 18.3
2019-Aug-18 16:14 226 6 gusting 17 18.3
2019-Aug-18 16:09 225 6 gusting 17 18.9
2019-Aug-18 16:04 221 6 gusting 14 18.9
2019-Aug-18 15:59 212 7 gusting 19 19.4
2019-Aug-18 15:54 215 7 gusting 19 19.4
2019-Aug-18 15:49 221 7 gusting 17 19.4
2019-Aug-18 15:44 212 7 gusting 17 20.0
2019-Aug-18 15:39 214 6 gusting 16 20.0
2019-Aug-18 15:34 231 6 gusting 14 20.6
2019-Aug-18 15:29 233 6 gusting 12 20.6
2019-Aug-18 15:24 231 6 gusting 16 20.6
2019-Aug-18 15:19 234 7 gusting 18 20.6
2019-Aug-18 15:14 224 7 gusting 19 20.6
2019-Aug-18 15:09 233 8 gusting 19 20.0
2019-Aug-18 15:04 234 8 gusting 23 20.0
2019-Aug-18 14:59 230 9 gusting 23 20.0
2019-Aug-18 14:54 238 9 gusting 20 20.6
2019-Aug-18 14:49 229 8 gusting 20 20.6
2019-Aug-18 14:44 223 6 gusting 19 20.6
2019-Aug-18 14:39 230 6 gusting 16 20.0
2019-Aug-18 14:34 241 8 gusting 19 20.0
2019-Aug-18 14:29 247 8 gusting 19 19.4
2019-Aug-18 14:24 235 6 gusting 17 19.4
2019-Aug-18 14:19 217 6 gusting 17 18.9
2019-Aug-18 14:14 226 7 gusting 14 18.9
2019-Aug-18 14:09 240 7 gusting 14 18.9
2019-Aug-18 14:04 234 8 gusting 16 18.3
2019-Aug-18 13:59 234 9 gusting 21 18.9
2019-Aug-18 13:54 239 8 gusting 21 18.9
2019-Aug-18 13:49 239 7 gusting 19 18.9
2019-Aug-18 13:44 229 8 gusting 19 19.4
2019-Aug-18 13:39 231 10 gusting 22 19.4
2019-Aug-18 13:34 242 9 gusting 22 19.4
2019-Aug-18 13:29 246 9 gusting 19 19.4
2019-Aug-18 13:24 228 8 gusting 19 19.4
2019-Aug-18 13:19 224 6 gusting 19 19.4
2019-Aug-18 13:14 248 7 gusting 19 20.0
2019-Aug-18 13:09 251 7 gusting 19 19.4
2019-Aug-18 13:04 239 8 gusting 23 19.4